User: anonymous   Login
Location: Feigenhofen
(48.4939°N, 10.7793°E)
Time: 05:34:56
(UTC+00:00)
Language:

SL-16 R/B - Orbit

View from above orbital plane
View from above orbital plane
View from above satellite
View from above satellite

Ground track
Ground track

The orbit data is extracted from the following two-line orbital elements,

1 28353U 04021B   22222.10806985  .00000230  00000-0  14525-3 0  9990
2 28353  71.0013  95.7491 0006704 238.1046 121.9425 14.14278616937936
Epoch (UTC): 10 August 2022 02:35:37
Eccentricity: 0.0006704
inclination: 71.0013°
perigee height: 840 km
apogee height: 849 km
right ascension of ascending node: 95.7491°
argument of perigee: 238.1046°
revolutions per day: 14.14278616
mean anomaly at epoch: 121.9425°
orbit number at epoch: 93793

The dashed part of the orbit path shows where the satellite is in the earth's shadow,  

DLR